Regional Weather Roundup
Issued by NWS Midland/Odessa, TX

Current Version | Previous Version | Text Only | Print | Product List | Glossary On
Versions: 1 2 3 4 5 6 7 8 9 10 11 12 13 14 15 16 17 18 19 20 21 22 23 24 25 26 27 28 29 30 31 32 33 34 35 36 37 38 39 40 41 42 43 44 45 46 47 48 49 50
000
ASUS44 KMAF 221610
RWRMAF
MIDLAND AREA WEATHER ROUNDUP
NATIONAL WEATHER SERVICE MIDLAND TX
1100 AM CDT WED OCT 22 2014

...IN SOUTHWEST TEXAS AND SOUTHEAST NEW MEXICO...

CITY           SKY/WX    TMP DP  RH WIND       PRES   REMARKS
ALPINE         CLOUDY    65  57  74 S5        30.24S
ANDREWS        CLOUDY    67  58  74 S10G16    30.15R
ARTESIA        NOT AVBL
BIG SPRING     NOT AVBL
CARLSBAD       CLOUDY    64  58  80 S3        30.13S
DRYDEN           N/A     67  65  93 SE10      30.12R
FORT STOCKTON  SUNNY     69  61  75 S15G22    30.14R
GUAD PASS      MOSUNNY   61  55  81 SW8       30.23S
HOBBS          CLOUDY    63  61  94 SE12      30.16S
MARFA          CLOUDY    63  57  82 SE9       30.22S
MIDLAND AIRPK  SUNNY     67  58  71 SE13      30.15R
MIDLAND INTL   CLOUDY    67  58  72 SE14      30.14R
ODESSA         CLOUDY    66  58  75 S10       30.15R
PECOS          MOSUNNY   68  61  79 SE6       30.12S
PRESIDIO       CLOUDY    66  62  84 SW3       30.12R
SEMINOLE       CLOUDY    64  60  87 CALM      30.16S
SNYDER         HVY RAIN  58  57  95 S5        30.17S
WINK           PTSUNNY   68  62  81 S12       30.11F
$$
...OTHER STATIONS IN TEXAS...

CITY           SKY/WX    TMP DP  RH WIND       PRES   REMARKS
ABILENE        LGT RAIN  69  52  54 S12       30.16R
AMARILLO       RAIN      59  58  96 S15       30.15S FOG
AUSTIN         MOSUNNY   73  62  68 VRB6      30.13S
BROWNSVILLE    PTSUNNY   79  75  89 NW5       30.02S
CORPUS CHRISTI MOSUNNY   79  69  71 NE13      30.06R
DALLAS FTW     MOSUNNY   74  62  66 SE9       30.16R
DEL RIO        CLOUDY    71  57  61 E7        30.11R
EL PASO        PTSUNNY   65  57  75 CALM      30.15R
HOUSTON INT    MOSUNNY   76  60  57 E9        30.12R
LUBBOCK        CLOUDY    62  59  90 SE8       30.16R FOG
SAN ANGELO     CLOUDY    65  58  78 S3        30.15R
SAN ANTONIO    MOSUNNY   76  57  51 E13       30.13R
WACO           PTSUNNY   73  62  68 SE9       30.16R
WICHITA FALLS  NOT AVBL
$$
...OTHER LOCATIONS IN NEW MEXICO...

CITY           SKY/WX    TMP DP  RH WIND       PRES   REMARKS
ALAMAGORDO     NOT AVBL
ALBUQUERQUE    MOSUNNY   58  50  75 S5        30.22R
CANNON AFB     CLOUDY    60  56  89 SW8       30.17R
CLOVIS         CLOUDY    61  55  82 SW9       30.19R
HOLLOMAN AFB   SUNNY     62  55  76 NW2       30.16R
ROSWELL        CLOUDY    63  60  90 S7        30.14R FOG
RUIDOSO        SUNNY     52  48  87 NW5       30.27R
SANTA FE       PTSUNNY   57  47  69 W3        30.24S
TRUTH OR CONSE SUNNY     62  50  64 W3        30.18S
TUCUMCARI      MOSUNNY   67  54  63 SW18      30.10S
$$



USA.gov is the U.S. government's official web portal to all federal, state and local government web resources and services.